Regional Weather Roundup
Issued by NWS

Home | Current Version | Previous Version | Graphics & Text | Print | Product List | Glossary On
Versions: 1 2 3 4 5 6 7 8 9 10 11 12 13 14 15 16 17 18 19 20 21 22 23 24 25 26 27
000
ASUS45 KSLC 050710
RWRUT

UTAH REGIONAL WEATHER ROUNDUP
NATIONAL WEATHER SERVICE SALT LAKE CITY UT
100 AM MDT THU MAY 05 2016

UTZ001>011-023>025-050800-

NORTHERN UTAH

CITY           SKY/WX    TMP DP  RH WIND       PRES   REMARKS
BRIGHAM CITY   CLOUDY    57  40  53 CALM      29.97R
HILL AFB       MOCLDY    64  34  33 E16G23    29.98S
LOGAN          CLOUDY    54  43  66 CALM      29.99S
OGDEN          MOCLDY    64  35  34 S13       29.96R
PROVO AIRPORT  CLOUDY    64  34  32 SE13      29.99R
SALT LAKE CITY MOCLDY    66  36  32 SE9       29.95S
VERNAL         CLOUDY    49  33  54 MISG      30.10R
WENDOVER       MOCLDY    61  39  44 CALM      29.94S
HEBER CITY     CLOUDY    50  32  50 S3        30.07R

$$

UTZ012>022-026-027-050800-

SOUTHERN/CENTRAL UTAH

CITY           SKY/WX    TMP DP  RH WIND       PRES   REMARKS
BLANDING       PTCLDY    55  26  32 NE10      30.21S
BRYCE CANYON   PTCLDY    42  32  67 CALM      30.20R
CEDAR CITY     MOCLDY    56  33  42 E7        30.03S
DELTA          MOCLDY    59  37  44 E3        29.98S
HANKSVILLE     MOCLDY    59  34  38 CALM      30.04R
MILFORD        PTCLDY    53  31  42 SW6       29.99S
MOAB/CYNLANDS  PTCLDY    64  29  26 CALM      30.03S
PRICE          MOCLDY    54  28  36 N9        30.11S
ST GEORGE      CLOUDY    70  37  30 E3        29.90S
KANAB          PTCLDY    54  37  54 NE7       30.06S

$$

REGIONAL REPORTS     COLORADO/ARIZONA

CITY           SKY/WX    TMP DP  RH WIND       PRES   REMARKS
CRAIG, CO      CLOUDY    40  35  83 E3        30.18S
GRAND JUNCTION CLOUDY    56  34  43 E10       30.09R
RIFLE          CLOUDY    51  33  50 CALM      30.17R
MONTROSE       CLOUDY    53  29  39 SE9       30.19S
CORTEZ         CLEAR     43  30  60 CALM      30.18S
PAGE, AZ       PTCLDY    71  26  18 S8        29.98R
GRAND CANYON   PTCLDY    41  30  65 CALM      30.14F
KINGMAN        MOCLDY    65  34  31 S8        29.91S
FLAGSTAFF      CLEAR     40  28  62 CALM      30.18S

$$

REGIONAL REPORTS    NEVADA/IDAHO/WYOMING

CITY           SKY/WX    TMP DP  RH WIND       PRES   REMARKS
LAS VEGAS, NV  CLOUDY    77  30  17 SE3       29.75S
ELY            MOCLDY    48  28  46 S13       30.04S
ELKO           MOCLDY    55  39  54 E3        29.94S
POCATELLO, ID  CLOUDY    56  39  53 E6        29.98S
BURLEY         MOCLDY    56  42  59 CALM      29.91S
EVANSTON, WY   CLOUDY    56  25  30 SE3       30.16S
ROCK SPRINGS   CLOUDY    52  27  38 SW8       30.16S
KEMMERER         N/A     46  30  53 N6        30.18S

$$




USA.gov is the U.S. government's official web portal to all federal, state and local government web resources and services.